DW7229 Weather Reports


Display with metric or nautical units.
time (UTC)temp
F
wind
direction
speed
MPH
gust
MPH
rain 1hr
in
rain 24hr
in
rain mn
in
humidity
%
barometer
mb
20200328122036 31 180 0.0 2.0 0.00 0.00 0.00 79 1020.3
20200328121530 30 0.0 0.0 0.00 0.00 0.00 79 1020.1
20200328121023 29 0.0 0.0 0.00 0.00 0.00 80 1020.1
20200328120516 29 0.0 0.0 0.00 0.00 0.00 80 1020.3
20200328120026 29 0.0 0.0 0.00 0.00 0.00 80 1020.3
20200328115519 28 0.0 0.0 0.00 0.00 0.00 80 1020.3
20200328115030 28 0.0 0.0 0.00 0.00 0.00 80 1020.2
20200328114523 28 0.0 0.0 0.00 0.00 0.00 80 1020.2
20200328114015 28 0.0 0.0 0.00 0.00 0.00 80 1019.8
20200328113526 28 0.0 0.0 0.00 0.00 0.00 80 1019.8
20200328113019 28 0.0 0.0 0.00 0.00 0.00 80 1019.7
20200328112529 27 0.0 0.0 0.00 0.00 0.00 81 1019.6
20200328112022 27 0.0 0.0 0.00 0.00 0.00 80 1019.6
20200328111533 27 0.0 0.0 0.00 0.00 0.00 80 1019.5
20200328111025 27 0.0 0.0 0.00 0.00 0.00 80 1019.5
20200328110518 27 0.0 0.0 0.00 0.00 0.00 79 1019.4
20200328110054 28 0.0 0.0 0.00 0.00 0.00 79 1019.4
20200328105521 28 0.0 0.0 0.00 0.00 0.00 79 1019.5
20200328105033 28 0.0 0.0 0.00 0.00 0.00 79 1019.5
20200328104525 28 0.0 0.0 0.00 0.00 0.00 78 1019.4
20200328104017 28 0.0 0.0 0.00 0.00 0.00 78 1019.2
20200328103528 28 0.0 0.0 0.00 0.00 0.00 79 1019.2
20200328103021 28 0.0 0.0 0.00 0.00 0.00 79 1019.0
20200328102531 28 0.0 0.0 0.00 0.00 0.00 79 1019.0
20200328102024 28 0.0 0.0 0.00 0.00 0.00 78 1018.9
20200328101516 29 0.0 0.0 0.00 0.00 0.00 78 1018.8
20200328101027 29 0.0 0.0 0.00 0.00 0.00 77 1018.8
20200328100520 29 0.0 0.0 0.00 0.00 0.00 77 1018.5
20200328100030 29 0.0 0.0 0.00 0.00 0.00 78 1018.5
20200328095523 29 0.0 0.0 0.00 0.00 0.00 77 1018.5
20200328095016 28 0.0 0.0 0.00 0.00 0.00 78 1018.5
20200328094527 28 270 0.0 1.0 0.00 0.00 0.00 79 1018.5
20200328094019 27 270 0.0 2.0 0.00 0.00 0.00 80 1018.4
20200328093524 27 0.0 0.0 0.00 0.00 0.00 80 1018.4
20200328092516 27 0.0 0.0 0.00 0.00 0.00 79 1018.3
20200328091017 28 0.0 0.0 0.00 0.00 0.00 77 1018.4
20200328090516 28 0.0 0.0 0.00 0.00 0.00 75 1018.5
20200328090015 28 0.0 0.0 0.00 0.00 0.00 75 1018.5
20200328085526 29 0.0 0.0 0.00 0.00 0.00 76 1018.6
20200328085018 29 0.0 0.0 0.00 0.00 0.00 76 1018.6
20200328084530 29 0.0 0.0 0.00 0.00 0.00 74 1018.6
20200328084022 29 0.0 0.0 0.00 0.00 0.00 73 1018.8
20200328083532 30 0.0 0.0 0.00 0.00 0.00 73 1018.8
20200328083025 30 0.0 0.0 0.00 0.00 0.00 72 1018.6
20200328082518 30 0.0 0.0 0.00 0.00 0.00 71 1018.6
20200328082028 30 270 0.0 2.0 0.00 0.00 0.00 71 1018.6
20200328081521 31 270 0.0 1.0 0.00 0.00 0.00 70 1018.7
20200328081031 31 0.0 0.0 0.00 0.00 0.00 69 1018.7
20200328080524 32 68 0.0 2.0 0.00 0.00 0.00 67 1018.9
20200328080016 32 0.0 0.0 0.00 0.00 0.00 66 1019.0
20200328075527 32 246 1.0 3.0 0.00 0.00 0.00 66 1018.8
20200328075020 32 257 1.0 3.0 0.00 0.00 0.00 66 1018.5
20200328074531 32 268 1.0 3.0 0.00 0.00 0.00 66 1018.5
20200328074023 32 113 0.0 2.0 0.00 0.00 0.00 67 1018.7
20200328073516 32 0.0 1.0 0.00 0.00 0.00 67 1018.7
20200328073027 33 97 0.0 2.0 0.00 0.00 0.00 66 1018.6
20200328072520 33 247 0.0 3.0 0.00 0.00 0.00 65 1018.6
20200328072030 33 248 0.0 2.0 0.00 0.00 0.00 64 1018.6
20200328071522 33 270 0.0 3.0 0.00 0.00 0.00 63 1018.5
20200328071015 33 0.0 0.0 0.00 0.00 0.00 63 1018.5
20200328070526 33 0.0 0.0 0.00 0.00 0.00 64 1018.4
20200328070018 33 0.0 0.0 0.00 0.01 0.00 65 1018.4
20200328065529 34 0.0 0.0 0.00 0.01 0.00 63 1018.4
20200328065022 34 0.0 0.0 0.00 0.01 0.00 62 1018.4
20200328064532 35 0.0 0.0 0.00 0.01 0.00 59 1018.4
20200328064025 36 0.0 0.0 0.00 0.01 0.00 57 1018.4
20200328063518 36 0.0 0.0 0.00 0.01 0.00 56 1018.4
20200328063029 36 225 0.0 2.0 0.00 0.01 0.00 56 1018.5
20200328062521 36 274 1.0 3.0 0.00 0.01 0.00 56 1018.5
20200328062032 36 270 2.0 3.0 0.00 0.01 0.00 56 1018.5
20200328061525 36 23 0.0 2.0 0.00 0.01 0.00 58 1018.5
20200328061017 36 54 1.0 3.0 0.00 0.01 0.00 58 1018.5
20200328060528 36 90 2.0 3.0 0.00 0.01 0.00 56 1018.5
20200328060021 37 340 2.0 4.0 0.00 0.01 0.00 54 1018.5
20200328055526 36 277 1.0 3.0 0.00 0.01 0.00 56 1018.7
20200328055024 36 255 2.0 3.0 0.00 0.01 0.00 57 1018.8
20200328054517 36 18 1.0 3.0 0.00 0.01 0.00 59 1018.7
20200328054021 36 92 1.0 2.0 0.00 0.01 0.00 62 1018.4
20200328053520 36 121 1.0 2.0 0.00 0.01 0.00 59 1018.4
20200328053018 36 307 3.0 5.0 0.00 0.01 0.00 57 1018.4
20200328052517 35 261 1.0 3.0 0.00 0.01 0.00 59 1018.4
20200328052016 35 256 1.0 4.0 0.00 0.01 0.00 60 1018.2
20200328051527 34 279 2.0 5.0 0.00 0.01 0.00 63 1018.0
20200328051019 33 278 2.0 4.0 0.00 0.01 0.00 66 1018.0
20200328050530 32 273 1.0 3.0 0.00 0.01 0.00 70 1018.0
20200328050022 32 0.0 0.0 0.00 0.01 0.00 72 1018.0
20200328045515 32 270 0.0 2.0 0.00 0.01 0.00 73 1017.8
20200328045027 31 250 1.0 3.0 0.00 0.01 0.00 75 1017.7
20200328044518 31 0.0 0.0 0.00 0.01 0.00 75 1017.6
20200328044030 32 0.0 0.0 0.00 0.01 0.00 75 1017.5
20200328043522 32 0.0 0.0 0.00 0.01 0.00 74 1017.5
20200328043032 32 0.0 0.0 0.00 0.01 0.00 72 1017.2
20200328042525 32 0.0 0.0 0.00 0.01 0.00 72 1017.2
20200328042018 32 0.0 0.0 0.00 0.01 0.00 73 1017.2
20200328041528 32 0.0 0.0 0.00 0.01 0.00 73 1017.3
20200328041021 32 0.0 0.0 0.00 0.01 0.00 70 1017.3
20200328040532 33 0.0 0.0 0.00 0.01 0.00 69 1017.2
20200328040024 33 0.0 0.0 0.00 0.01 0.00 69 1017.2
20200328035517 33 0.0 0.0 0.00 0.01 0.01 68 1017.1
20200328035027 34 0.0 0.0 0.00 0.01 0.01 68 1017.0
20200328034521 34 0.0 0.0 0.00 0.01 0.01 69 1017.0
20200328034031 34 0.0 0.0 0.00 0.01 0.01 68 1016.6
20200328033524 34 0.0 0.0 0.00 0.01 0.01 66 1016.6
20200328033016 34 0.0 0.0 0.00 0.01 0.01 67 1016.3
20200328032526 34 0.0 0.0 0.00 0.01 0.01 67 1016.2
20200328032019 34 0.0 0.0 0.00 0.01 0.01 67 1016.2
20200328031530 35 0.0 0.0 0.00 0.01 0.01 66 1016.3
20200328031023 35 0.0 0.0 0.00 0.01 0.01 65 1016.3
20200328030516 35 0.0 0.0 0.00 0.01 0.01 64 1016.1
20200328030026 36 0.0 0.0 0.00 0.01 0.01 62 1016.1
20200328025519 36 0.0 0.0 0.00 0.01 0.01 61 1016.2
20200328025029 37 0.0 0.0 0.00 0.01 0.01 62 1016.3
20200328024522 37 0.0 0.0 0.00 0.01 0.01 61 1016.2
20200328024033 37 0.0 0.0 0.00 0.01 0.01 59 1016.1
20200328023525 37 0.0 0.0 0.00 0.01 0.01 59 1016.1
20200328023018 38 0.0 0.0 0.00 0.01 0.01 58 1015.9
20200328022529 39 0.0 0.0 0.00 0.01 0.01 57 1015.9
20200328022021 39 0.0 0.0 0.00 0.01 0.01 56 1015.8
20200328021526 39 0.0 0.0 0.00 0.01 0.01 55 1015.8
20200328021025 39 0.0 0.0 0.00 0.01 0.01 55 1015.8
20200328020517 39 0.0 0.0 0.00 0.01 0.01 55 1015.5
20200328020023 39 0.0 0.0 0.00 0.01 0.01 54 1015.5
20200328015521 40 0.0 0.0 0.00 0.01 0.01 54 1015.4
20200328015020 40 0.0 0.0 0.00 0.01 0.01 53 1015.4
20200328014518 41 0.0 0.0 0.00 0.01 0.01 51 1015.4
20200328014017 41 0.0 0.0 0.00 0.01 0.01 50 1015.4
20200328013516 41 0.0 0.0 0.00 0.01 0.01 47 1015.4
20200328013020 41 0.0 0.0 0.00 0.01 0.01 49 1015.1
20200328012531 42 261 1.0 3.0 0.00 0.01 0.01 45 1015.1
20200328012024 43 0.0 0.0 0.00 0.01 0.01 43 1015.0
20200328011517 43 0.0 0.0 0.00 0.01 0.01 42 1014.8
20200328011027 44 0.0 0.0 0.00 0.01 0.01 41 1014.8
20200328010520 44 0.0 0.0 0.00 0.01 0.01 40 1014.4
20200328010032 45 0.0 0.0 0.00 0.01 0.01 38 1014.4
20200328005523 45 240 1.0 3.0 0.00 0.01 0.01 38 1014.2
20200328005016 45 286 1.0 4.0 0.00 0.01 0.01 38 1014.1
20200328004526 45 225 0.0 2.0 0.00 0.01 0.01 38 1014.0
20200328004019 45 277 1.0 3.0 0.00 0.01 0.01 36 1013.9
20200328003529 46 248 0.0 2.0 0.00 0.01 0.01 35 1013.9
20200328003022 46 0.0 0.0 0.00 0.01 0.01 34 1013.7
20200328002515 47 203 1.0 3.0 0.00 0.01 0.01 33 1013.7
20200328002025 47 0.0 1.0 0.00 0.01 0.01 33 1013.6
20200328001518 48 61 1.0 4.0 0.00 0.01 0.01 33 1013.5
20200328001030 48 241 1.0 2.0 0.00 0.01 0.01 32 1013.5
20200328000522 48 113 1.0 5.0 0.00 0.01 0.01 31 1013.1
20200328000032 49 214 0.0 2.0 0.00 0.01 0.01 30 1013.1
20200327235525 49 42 1.0 3.0 0.00 0.01 0.01 29 1012.9
20200327235019 50 68 0.0 1.0 0.00 0.01 0.01 28 1012.9
20200327234528 50 41 1.0 4.0 0.00 0.01 0.01 28 1012.8
20200327234021 50 3 2.0 5.0 0.00 0.01 0.01 27 1012.5
20200327233532 51 260 2.0 6.0 0.00 0.01 0.01 27 1012.4
20200327233025 51 11 2.0 4.0 0.00 0.01 0.01 26 1012.3
20200327232517 51 259 2.0 4.0 0.00 0.01 0.01 25 1012.3
20200327232028 52 333 3.0 6.0 0.00 0.01 0.01 25 1012.1
20200327231520 52 292 5.0 10.0 0.00 0.01 0.01 25 1011.9
20200327231031 52 280 3.0 6.0 0.00 0.01 0.01 24 1011.9
20200327230524 53 335 3.0 7.0 0.00 0.01 0.01 24 1011.4
20200327230016 53 21 5.0 9.0 0.00 0.01 0.01 23 1011.4
20200327225527 53 345 5.0 7.0 0.00 0.01 0.01 22 1011.3
20200327225020 54 311 5.0 9.0 0.00 0.01 0.01 22 1011.2
20200327224531 54 327 4.0 6.0 0.00 0.01 0.01 21 1011.1
20200327224023 55 255 4.0 6.0 0.00 0.01 0.01 21 1010.7
20200327223515 55 301 5.0 9.0 0.00 0.01 0.01 20 1010.7
20200327223026 56 320 6.0 12.0 0.00 0.01 0.01 20 1010.7
20200327222519 56 349 5.0 7.0 0.00 0.01 0.01 20 1010.6
20200327222023 56 268 5.0 8.0 0.00 0.01 0.01 21 1010.5
20200327221522 56 314 6.0 10.0 0.00 0.01 0.01 20 1010.2
20200327221015 57 348 6.0 10.0 0.00 0.01 0.01 19 1010.2
20200327220519 57 21 6.0 11.0 0.00 0.01 0.01 19 1010.0
20200327220018 58 221 5.0 8.0 0.00 0.01 0.01 19 1010.0
20200327215517 58 276 4.0 8.0 0.00 0.01 0.01 19 1009.9
20200327215016 58 322 3.0 7.0 0.00 0.01 0.01 19 1009.7
20200327214532 58 314 5.0 9.0 0.00 0.01 0.01 18 1009.7
20200327214024 59 320 7.0 9.0 0.00 0.01 0.01 18 1009.4
20200327213517 59 300 8.0 11.0 0.00 0.01 0.01 18 1009.4
20200327213028 59 327 7.0 10.0 0.00 0.01 0.01 18 1009.5
20200327212521 59 43 7.0 8.0 0.00 0.01 0.01 18 1009.5
20200327212031 59 282 7.0 12.0 0.00 0.01 0.01 18 1009.4
20200327211524 59 327 8.0 15.0 0.00 0.01 0.01 18 1009.2
20200327211016 59 300 6.0 11.0 0.00 0.01 0.01 18 1009.2
20200327210527 60 292 8.0 14.0 0.00 0.01 0.01 19 1009.1
20200327210020 60 237 6.0 11.0 0.00 0.01 0.01 20 1009.1
20200327205531 60 293 8.0 12.0 0.00 0.01 0.01 21 1009.1
20200327205023 60 302 7.0 12.0 0.00 0.01 0.01 21 1008.9
20200327204516 61 343 5.0 8.0 0.00 0.01 0.01 22 1008.9
20200327204026 61 274 5.0 9.0 0.00 0.01 0.01 21 1008.8
20200327203519 60 96 4.0 7.0 0.00 0.01 0.01 21 1008.8
20200327203030 60 48 4.0 7.0 0.00 0.01 0.01 21 1008.7
20200327202522 61 355 5.0 8.0 0.00 0.01 0.01 21 1008.6
20200327202015 62 279 5.0 8.0 0.00 0.01 0.01 20 1008.5
20200327201527 61 9 4.0 7.0 0.00 0.01 0.01 21 1008.4
20200327201018 61 179 4.0 9.0 0.00 0.01 0.01 21 1008.4
20200327200529 61 257 4.0 9.0 0.00 0.01 0.01 20 1008.4
20200327200021 61 314 5.0 9.0 0.00 0.01 0.01 20 1008.4
20200327195533 60 347 7.0 10.0 0.00 0.01 0.01 19 1008.4
20200327195025 60 291 7.0 12.0 0.00 0.01 0.01 20 1008.3
20200327194518 60 342 7.0 9.0 0.00 0.01 0.01 19 1008.3
20200327194028 60 78 9.0 21.0 0.00 0.01 0.01 19 1008.2
20200327193521 60 280 7.0 15.0 0.00 0.01 0.01 19 1008.2
20200327193032 60 7 9.0 15.0 0.00 0.01 0.01 19 1008.4
20200327192525 60 294 10.0 17.0 0.00 0.01 0.01 19 1008.4
20200327192017 60 291 8.0 11.0 0.00 0.01 0.01 20 1008.2
20200327191528 61 262 6.0 12.0 0.00 0.01 0.01 21 1007.9
20200327191020 61 314 6.0 7.0 0.00 0.01 0.01 22 1007.9
20200327190531 61 346 4.0 8.0 0.00 0.01 0.01 23 1007.9
20200327190024 60 258 9.0 12.0 0.00 0.01 0.01 21 1007.9
20200327185516 60 53 6.0 10.0 0.00 0.01 0.01 23 1007.8
20200327185027 60 198 7.0 11.0 0.00 0.01 0.01 24 1007.7
20200327184519 60 340 6.0 9.0 0.00 0.01 0.01 26 1007.7
20200327184024 60 279 7.0 15.0 0.00 0.01 0.01 25 1007.7
20200327183523 60 264 8.0 15.0 0.00 0.01 0.01 26 1007.7
20200327183015 60 329 6.0 9.0 0.00 0.01 0.01 26 1007.6
20200327182521 59 309 7.0 10.0 0.00 0.01 0.01 26 1007.5
20200327182019 60 312 7.0 14.0 0.00 0.01 0.01 26 1007.5
20200327181518 60 234 7.0 15.0 0.00 0.01 0.01 27 1007.5
20200327181016 60 236 6.0 9.0 0.00 0.01 0.01 28 1007.5
20200327180533 60 9 4.0 7.0 0.00 0.01 0.01 27 1007.3
20200327180025 59 263 7.0 11.0 0.00 0.01 0.01 27 1007.3
20200327175518 60 272 5.0 10.0 0.00 0.01 0.01 29 1007.4
20200327175029 59 271 5.0 8.0 0.00 0.01 0.01 27 1007.4
20200327174523 60 249 4.0 7.0 0.00 0.01 0.01 28 1007.4
20200327174032 59 242 5.0 9.0 0.00 0.01 0.01 29 1007.3
20200327173525 59 282 6.0 12.0 0.00 0.01 0.01 30 1007.3
20200327173019 59 232 7.0 12.0 0.00 0.01 0.01 29 1007.2
20200327172528 58 227 6.0 8.0 0.00 0.01 0.01 31 1007.2
20200327172021 58 279 8.0 15.0 0.00 0.01 0.01 30 1007.2
20200327171532 58 354 7.0 11.0 0.00 0.01 0.01 31 1007.2
20200327171024 58 310 4.0 9.0 0.00 0.01 0.01 30 1007.2
20200327170517 58 326 6.0 11.0 0.00 0.01 0.01 31 1007.1
20200327170028 58 341 6.0 13.0 0.00 0.01 0.01 32 1007.1
20200327165520 57 307 8.0 10.0 0.00 0.01 0.01 33 1007.2
20200327165031 57 319 7.0 9.0 0.00 0.01 0.01 33 1007.2
20200327164524 57 281 8.0 10.0 0.00 0.01 0.01 33 1007.2
20200327164016 57 316 6.0 13.0 0.00 0.01 0.01 33 1007.1
20200327163527 57 288 6.0 9.0 0.00 0.01 0.01 33 1007.1
20200327163020 57 280 6.0 9.0 0.00 0.01 0.01 34 1007.1
20200327162530 56 247 6.0 10.0 0.00 0.01 0.01 35 1007.0
20200327162023 56 274 6.0 12.0 0.00 0.01 0.01 36 1007.1
20200327161516 56 236 6.0 11.0 0.00 0.01 0.01 35 1007.1
20200327161027 55 6 6.0 11.0 0.00 0.01 0.01 36 1007.1
20200327160519 55 281 9.0 14.0 0.00 0.01 0.01 37 1006.9
20200327160030 55 300 7.0 13.0 0.00 0.01 0.01 37 1006.9
20200327155522 55 292 7.0 11.0 0.00 0.01 0.01 37 1006.9
20200327155015 55 307 5.0 14.0 0.00 0.01 0.01 37 1006.9
20200327154526 54 291 7.0 13.0 0.00 0.01 0.01 37 1006.9
20200327154019 54 306 6.0 13.0 0.00 0.01 0.01 38 1006.9
20200327153529 54 276 7.0 12.0 0.00 0.01 0.01 39 1006.9
20200327153022 53 267 7.0 12.0 0.00 0.01 0.01 40 1006.8
20200327152532 53 260 9.0 14.0 0.00 0.01 0.01 40 1006.8
20200327152025 0 0.0 0.0 0.00 0.01 0.01 1006.9
20200327151520 53 310 5.0 10.0 0.00 0.01 0.01 40 1006.9
20200327151028 53 32 8.0 13.0 0.00 0.01 0.01 40 1006.9
20200327150521 53 284 6.0 10.0 0.00 0.01 0.01 40 1006.7
20200327150026 53 339 5.0 9.0 0.00 0.01 0.01 41 1006.7
20200327145524 52 351 6.0 10.0 0.00 0.01 0.01 42 1006.5
20200327145017 52 337 8.0 12.0 0.00 0.01 0.01 42 1006.4
20200327144522 52 303 7.0 13.0 0.00 0.01 0.01 44 1006.4
20200327144020 52 304 7.0 12.0 0.00 0.01 0.01 45 1006.2
20200327143519 52 305 7.0 10.0 0.00 0.01 0.01 46 1006.2
20200327143018 51 275 7.0 14.0 0.00 0.01 0.01 45 1006.3
20200327142516 51 289 8.0 10.0 0.00 0.01 0.01 46 1006.3
20200327142016 50 265 6.0 11.0 0.00 0.01 0.01 47 1006.2
20200327141520 50 288 9.0 13.0 0.00 0.01 0.01 47 1006.1
20200327141031 50 352 5.0 9.0 0.00 0.01 0.01 47 1006.1
20200327140523 50 287 7.0 10.0 0.00 0.01 0.01 47 1006.2
20200327140016 50 248 6.0 11.0 0.00 0.01 0.01 48 1006.2
20200327135527 50 204 4.0 10.0 0.00 0.01 0.01 49 1006.0
20200327135019 49 26 5.0 9.0 0.00 0.01 0.01 50 1005.9
20200327134530 49 255 7.0 12.0 0.00 0.01 0.01 50 1005.9
20200327134023 49 326 6.0 9.0 0.00 0.01 0.01 51 1005.7
20200327133515 49 264 4.0 5.0 0.00 0.01 0.01 53 1005.7
20200327133026 48 286 5.0 9.0 0.00 0.01 0.01 52 1005.5
20200327132519 48 337 8.0 14.0 0.00 0.01 0.01 53 1005.5
20200327132030 47 292 6.0 8.0 0.00 0.01 0.01 54 1005.5
20200327131522 47 222 5.0 10.0 0.00 0.01 0.01 54 1005.5
20200327131033 47 352 6.0 10.0 0.00 0.01 0.01 55 1005.5
20200327130525 47 292 7.0 17.0 0.00 0.01 0.01 56 1005.5
20200327130018 47 308 5.0 8.0 0.00 0.01 0.01 58 1005.5
20200327125529 47 14 5.0 7.0 0.00 0.01 0.01 61 1005.4
20200327125021 47 341 6.0 8.0 0.00 0.01 0.01 63 1005.2
20200327124532 46 283 5.0 10.0 0.00 0.01 0.01 65 1005.2
20200327124024 46 312 4.0 6.0 0.00 0.01 0.01 66 1005.1
20200327123518 46 308 2.0 4.0 0.00 0.01 0.01 68 1005.1
20200327123027 46 334 3.0 7.0 0.00 0.01 0.01 68 1005.2
20200327122520 46 30 2.0 5.0 0.00 0.01 0.01 69 1005.2